Miscellaneous Local Product
Issued by NWS North Platte, NE

Home | Current Version | Previous Version | Text Only | Print | Product List | Glossary On
Versions: 1 2 3 4 5 6 7 8 9 10 11 12 13 14 15 16 17 18 19 20 21 22 23 24 25 26 27 28 29 30 31 32 33 34 35 36 37 38 39 40 41 42 43 44 45 46 47 48 49 50
000
AXUS43 KLBF 182310
MISLBF


WESTERN AND NORTH CENTRAL NEBRASKA HOURLY WEATHER ROUNDUP
NATIONAL WEATHER SERVICE NORTH PLATTE NE
500 PM CST THU DEC 18 2014

***STATIONS NOT REPORTING VARIABLES SUCH AS SKY/WEATHER OR
PRESSURE ARE PROVIDED BY THE NEBRASKA DEPARTMENT OF
ROADS...RAWS...AND APRS NETWORKS...AND ARE NOT UNDER
NATIONAL WEATHER SERVICE QUALITY CONTROL***

...OBSERVATIONS IN AND NEAR THE EASTERN PANHANDLE OF NEBRASKA...

CITY           SKY/WX    TMP DP  RH WIND       PRES   REMARKS
PINE RIDGE     CLEAR     32  23  69 SW8       30.01S WCI  25
CHADRON        CLEAR     29  21  72 SW7       30.02R WCI  22
ALLIANCE       CLEAR     26  21  81 W7        30.00S WCI  18
SIDNEY         MOCLDY    33  24  69 W7        30.04R WCI  27
WHITECLAY        N/A     32  21  62 W3          N/A
CRESCENT LAKE    N/A     33  26  76 CALM        N/A
LISCO            N/A     21  14  73 W5          N/A  WCI  15
BIG SPRINGS      N/A     28  24  86 SW3         N/A
$$

...OBSERVATIONS IN NORTH CENTRAL NEBRASKA...

CITY           SKY/WX    TMP DP  RH WIND       PRES   REMARKS
VALENTINE      CLEAR     24  20  84 S5        30.06R WCI  18
THEDFORD       CLEAR     29  25  87 S3        30.06R
AINSWORTH      CLOUDY    26  24  95 SW3       30.06S FOG
O`NEILL        CLOUDY    28  26  92 CALM      30.12S
BROKEN BOW     CLOUDY    30  26  85 SW7       30.09R WCI  23
BROWNLEE         N/A     25  23  91 CALM        N/A
SPRINGVIEW       N/A     27  23  85 SW3         N/A
BREWSTER         N/A     32  28  86 S5          N/A  WCI  27
ROSE             N/A     30  30 100 MISG        N/A
SARGENT          N/A     29  27  90 CALM        N/A
COMSTOCK         N/A     33  30  87 SW5         N/A  WCI  29
CHAMBERS         N/A     27  23  84 CALM        N/A
$$

...OBSERVATIONS IN SOUTHWEST NEBRASKA AND FAR NORTHEAST COLORADO...

CITY           SKY/WX    TMP DP  RH WIND       PRES   REMARKS
WRAY           FAIR      31  28  87 CALM      30.06S
IMPERIAL       MOCLDY    28  25  88 CALM      30.07S
OGALLALA       PTCLDY    28  25  87 CALM      30.07R
NORTH PLATTE   CLOUDY    28  25  88 SW8       30.08S FOG     WCI  20
MCCOOK         CLOUDY    29  26  89 CALM      30.10S
LEXINGTON      CLOUDY    30  27  88 SW3       30.11S
PAXTON           N/A     27  24  88 CALM        N/A
BRADY            N/A     28  25  89 CALM        N/A
GOTHENBURG       N/A     29  25  85 W3          N/A
CALLAWAY         N/A     27  26  96 W5          N/A  WCI  22
$$

...NORTH PLATTE AREA...

CITY           SKY/WX    TMP DP  RH WIND       PRES   REMARKS
AIRPORT        CLOUDY    28  25  88 SW8       30.08S FOG     WCI  20
$$

...SOME WEATHER OBSERVATIONS FROM AROUND THE REGION...

CITY           SKY/WX    TMP DP  RH WIND       PRES   REMARKS
DENVER         PTCLDY    40  30  67 NE10      30.01R WCI  33
LARAMIE        PTCLDY    25  18  74 E6        30.01R WCI  18
CHEYENNE       MOCLDY    38  15  39 N9        30.01R WCI  31
SCOTTSBLUFF    MOCLDY    18  15  88 CALM      30.03S FOG
RAPID CITY     CLEAR     40  27  59 CALM      29.98R
PIERRE         CLOUDY    28  24  85 S7        30.06S WCI  21
WINNER         CLOUDY    30  24  78 S6        30.08R WCI  24
SIOUX FALLS    CLOUDY    27  22  81 SW3       30.18R
OMAHA          CLOUDY    31  26  82 S3        30.23R
GRAND ISLAND   CLOUDY    30  25  81 SW3       30.15F
KANSAS CITY    CLOUDY    32  29  88 E6        30.21R WCI  26
WICHITA        MOCLDY    34  30  85 N8        30.18R WCI  27
HAYS           CLOUDY    34  21  60 CALM      30.15R
LIBERAL        CLOUDY    36  30  80 NE3       30.13S
GOODLAND       CLEAR     38  30  73 N6        30.07R WCI  33
$$



USA.gov is the U.S. government's official web portal to all federal, state and local government web resources and services.